Rome, NY

5:26 PM EDT on April 25, 2018 (GMT -0400)
Griffiss

Weather History for KRME - May, 2014

Change the Weather History Date:

Wednesday, May 28, 2014

  Actual Average Record
Temperature  
Mean Temperature 61 °F -  
Max Temperature 68 °F 73 °F 91 °F (2016)
Min Temperature 53 °F 50 °F 33 °F (1983)
Degree Days  
Heating Degree Days 4    
Growing Degree Days 11 (Base 50)    
Moisture  
Dew Point 54 °F    
Average Humidity 77    
Maximum Humidity 90    
Minimum Humidity 64    
Precipitation  
Precipitation 0.00 in - - ()
Sea Level Pressure  
Sea Level Pressure 29.95 in    
Wind  
Wind Speed 6 mph (North)    
Max Wind Speed 13 mph    
Max Gust Speed 20 mph    
Visibility 9 miles    
Events      
Averages and records for this station are not official NWS values.
T = Trace of Precipitation, MM = Missing Value Source: NWS Daily Summary

Daily Weather History Graph

Daily Weather History Graph

Search for Another Location

Airport or City:

Astronomy

May. 28, 2014 Rise Set
Actual Time 5:26 AM EDT 8:31 PM EDT
Civil Twilight 4:52 AM EDT 9:05 PM EDT
Nautical Twilight 4:08 AM EDT 9:49 PM EDT
Astronomical Twilight 3:16 AM EDT 10:42 PM EDT
Moon 5:33 AM EDT (5/28) 8:26 PM EDT (5/28)
Length of Visible Light 16h 13m
Length of Day
15h 04m
Waning Crescent, 0% of the Moon is Illuminated
May 28
Waning Crescent
May 28
New
Jun 5
First Quarter
Jun 13
Full
Jun 19
Last Quarter

Hourly Weather History & Observations

Time (EDT) Temp. Dew Point Humidity Pressure Visibility Wind Dir Wind Speed Gust Speed Precip Events Conditions
12:17 AM 69.1 °F 62.1 °F 78% 29.80 in 10.0 mi Calm Calm - N/A   Overcast
12:53 AM 68.0 °F 62.1 °F 81% 29.79 in 10.0 mi Calm Calm - N/A   Overcast
1:53 AM 66.9 °F 61.0 °F 81% 29.79 in 10.0 mi NNW 8.1 mph - N/A   Overcast
2:44 AM 64.9 °F 61.0 °F 87% 29.80 in 9.0 mi West 8.1 mph - N/A   Mostly Cloudy
2:53 AM 66.0 °F 61.0 °F 84% 29.79 in 9.0 mi West 5.8 mph - N/A   Overcast
3:02 AM 64.9 °F 61.0 °F 87% 29.81 in 9.0 mi NW 5.8 mph - N/A   Overcast
3:36 AM 64.9 °F 61.0 °F 87% 29.81 in 9.0 mi WSW 4.6 mph - N/A   Overcast
3:53 AM 64.9 °F 61.0 °F 87% 29.80 in 8.0 mi West 5.8 mph - N/A   Overcast
4:20 AM 64.0 °F 61.0 °F 90% 29.81 in 8.0 mi West 4.6 mph - N/A   Overcast
4:53 AM 63.0 °F 57.9 °F 84% 29.81 in 10.0 mi North 6.9 mph - N/A   Overcast
5:06 AM 61.0 °F 57.0 °F 87% 29.82 in 10.0 mi NNW 10.4 mph - N/A   Overcast
5:35 AM 59.0 °F 55.0 °F 87% 29.84 in 10.0 mi NNW 8.1 mph - N/A   Overcast
5:53 AM 59.0 °F 54.0 °F 83% 29.84 in 9.0 mi NNW 9.2 mph - N/A   Overcast
6:27 AM 59.0 °F 54.0 °F 83% 29.87 in 8.0 mi North 6.9 mph - N/A   Overcast
6:53 AM 57.9 °F 54.0 °F 87% 29.87 in 9.0 mi NW 8.1 mph - N/A   Overcast
7:53 AM 57.9 °F 54.0 °F 87% 29.90 in 10.0 mi NW 8.1 mph - N/A   Overcast
9:46 AM 60.1 °F 53.1 °F 78% 29.94 in 10.0 mi NNW 10.4 mph - N/A   Overcast
9:48 AM 60.8 °F 53.6 °F 77% 29.94 in 1.8 mi NNW 11.5 mph - N/A   Haze
9:53 AM 60.1 °F 53.1 °F 78% 29.93 in 1.8 mi North 12.7 mph - N/A   Haze
10:00 AM 62.1 °F 53.1 °F 72% 29.94 in 10.0 mi NNE 12.7 mph - N/A   Scattered Clouds
10:53 AM 64.0 °F 54.0 °F 70% 29.95 in 10.0 mi NNE 10.4 mph - N/A   Clear
11:51 AM 64.4 °F 51.8 °F 64% 29.98 in 10.0 mi North 9.2 mph - N/A   Mostly Cloudy
11:53 AM 64.0 °F 52.0 °F 65% 29.97 in 10.0 mi North 8.1 mph - N/A   Mostly Cloudy
12:01 PM 64.0 °F 52.0 °F 65% 29.98 in 10.0 mi North 8.1 mph - N/A   Overcast
12:10 PM 64.0 °F 52.0 °F 65% 29.99 in 10.0 mi NNE 4.6 mph - N/A   Overcast
12:30 PM 64.9 °F 53.1 °F 65% 29.99 in 10.0 mi Variable 6.9 mph 17.3 mph N/A   Overcast
12:53 PM 64.0 °F 52.0 °F 65% 29.99 in 10.0 mi WNW 5.8 mph - N/A   Overcast
2:17 PM 64.9 °F 55.9 °F 73% 30.01 in 10.0 mi SE 4.6 mph - N/A   Overcast
2:46 PM 64.9 °F 55.0 °F 70% 30.02 in 10.0 mi SE 9.2 mph - N/A   Overcast
2:53 PM 64.0 °F 55.0 °F 73% 30.01 in 10.0 mi SSE 12.7 mph - N/A   Overcast
3:53 PM 64.0 °F 54.0 °F 70% 30.03 in 10.0 mi SE 9.2 mph - N/A   Overcast
4:07 PM 64.0 °F 54.0 °F 70% 30.04 in 10.0 mi SE 9.2 mph - N/A   Overcast
4:53 PM 63.0 °F 53.1 °F 70% 30.05 in 10.0 mi East 12.7 mph 19.6 mph N/A   Overcast
5:43 PM 62.1 °F 52.0 °F 70% 30.06 in 10.0 mi ESE 10.4 mph - N/A   Overcast
7:53 PM 57.0 °F 50.0 °F 77% 30.11 in 10.0 mi SE 11.5 mph - N/A   Mostly Cloudy
8:53 PM 55.9 °F 48.9 °F 77% 30.13 in 10.0 mi SE 6.9 mph - N/A   Overcast
9:18 PM 55.9 °F 48.9 °F 77% 30.15 in 10.0 mi SE 11.5 mph - N/A   Overcast
9:53 PM 55.0 °F 48.9 °F 80% 30.16 in 10.0 mi SE 8.1 mph - N/A   Mostly Cloudy
10:53 PM 53.1 °F 48.0 °F 83% 30.17 in 10.0 mi ESE 5.8 mph - N/A   Mostly Cloudy
11:12 PM 53.1 °F 46.9 °F 80% 30.18 in 10.0 mi ESE 5.8 mph - N/A   Mostly Cloudy
11:53 PM 53.1 °F 46.9 °F 80% 30.17 in 10.0 mi SE 6.9 mph - N/A   Overcast